• In Italy
  • List of Countries
  • For 7 days
  • Water Temperature
  • Satellite Maps
  • Weather Map
  • Weather Widgets
  • user-avatar
    Login

    Hourly Weather Jewłach

    Today, 20 April, Friday

    Time Temperature Precipitation Wind Pressure Humidity
    00:00 +16°C° 0 mm 3 mps 755 mmHg 44%
    01:00 +15°C° 0 mm 4 mps 755 mmHg 43%
    02:00 +15°C° 0 mm 5 mps 755 mmHg 42%
    03:00 +14°C° 0 mm 5 mps 754 mmHg 42%
    04:00 +14°C° 0 mm 6 mps 754 mmHg 42%
    05:00 +14°C° 0 mm 6 mps 754 mmHg 42%
    06:00 +14°C° 0 mm 6 mps 754 mmHg 42%
    07:00 +16°C° 0 mm 7 mps 754 mmHg 39%
    08:00 +17°C° 0 mm 8 mps 753 mmHg 36%
    09:00 +20°C° 0 mm 8 mps 753 mmHg 33%
    10:00 +21°C° 0 mm 8 mps 752 mmHg 32%
    11:00 +22°C° 0 mm 8 mps 752 mmHg 31%
    12:00 +23°C° 0 mm 7 mps 751 mmHg 30%
    13:00 +23°C° 0 mm 7 mps 751 mmHg 31%
    14:00 +23°C° 0 mm 6 mps 751 mmHg 32%
    15:00 +23°C° 0 mm 5 mps 750 mmHg 33%
    16:00 +22°C° 0 mm 5 mps 751 mmHg 36%
    17:00 +21°C° 0 mm 4 mps 751 mmHg 40%
    18:00 +20°C° 0 mm 4 mps 751 mmHg 43%
    19:00 +19°C° 0.1 mm 4 mps 752 mmHg 46%
    20:00 +18°C° 0.1 mm 4 mps 752 mmHg 50%
    21:00 +18°C° 0.1 mm 4 mps 752 mmHg 53%
    22:00 +17°C° 0.2 mm 4 mps 752 mmHg 56%
    23:00 +15°C° 0.2 mm 5 mps 752 mmHg 59%

    Tomorrow, 21 April, Saturday

    Time Temperature Precipitation Wind Pressure Humidity
    00:00 +15°C° 0.2 mm 5 mps 753 mmHg 62%
    01:00 +14°C° 0.1 mm 5 mps 753 mmHg 61%
    02:00 +14°C° 0.1 mm 5 mps 753 mmHg 60%
    03:00 +14°C° 0.1 mm 5 mps 753 mmHg 59%
    04:00 +14°C° 0 mm 4 mps 753 mmHg 59%
    05:00 +14°C° 0 mm 4 mps 754 mmHg 59%
    06:00 +14°C° 0 mm 3 mps 754 mmHg 59%
    07:00 +15°C° 0.1 mm 4 mps 754 mmHg 57%
    08:00 +15°C° 0.1 mm 4 mps 755 mmHg 55%
    09:00 +17°C° 0.1 mm 4 mps 755 mmHg 53%
    10:00 +18°C° 0.1 mm 4 mps 755 mmHg 51%
    11:00 +18°C° 0.1 mm 3 mps 755 mmHg 49%
    12:00 +19°C° 0.1 mm 3 mps 756 mmHg 47%
    13:00 +19°C° 0.1 mm 3 mps 755 mmHg 48%
    14:00 +19°C° 0.1 mm 2 mps 755 mmHg 50%
    15:00 +18°C° 0.1 mm 2 mps 755 mmHg 51%
    16:00 +18°C° 0.2 mm 2 mps 756 mmHg 56%
    17:00 +17°C° 0.2 mm 2 mps 756 mmHg 61%
    18:00 +16°C° 0.2 mm 2 mps 756 mmHg 65%
    19:00 +14°C° 0.4 mm 3 mps 757 mmHg 71%
    20:00 +13°C° 0.4 mm 4 mps 758 mmHg 76%
    21:00 +12°C° 0.4 mm 5 mps 759 mmHg 81%
    22:00 +12°C° 0.4 mm 4 mps 759 mmHg 82%
    23:00 +12°C° 0.4 mm 4 mps 759 mmHg 83%

    Day after tomorrow, 22 April, Sunday

    Time Temperature Precipitation Wind Pressure Humidity
    00:00 +11°C° 0.4 mm 3 mps 759 mmHg 84%
    01:00 +11°C° 0.3 mm 3 mps 759 mmHg 85%
    02:00 +12°C° 0.3 mm 2 mps 759 mmHg 85%
    03:00 +12°C° 0.3 mm 2 mps 759 mmHg 86%
    04:00 +12°C° 0.5 mm 1 mps 759 mmHg 86%
    05:00 +11°C° 0.5 mm 1 mps 759 mmHg 87%
    06:00 +11°C° 0.5 mm 1 mps 759 mmHg 88%
    07:00 +12°C° 0.5 mm 1 mps 759 mmHg 86%
    08:00 +12°C° 0.5 mm 1 mps 759 mmHg 84%
    09:00 +13°C° 0.5 mm 1 mps 759 mmHg 81%
    10:00 +13°C° 0.4 mm 2 mps 759 mmHg 79%
    11:00 +14°C° 0.4 mm 2 mps 758 mmHg 77%
    12:00 +14°C° 0.4 mm 2 mps 758 mmHg 74%
    13:00 +15°C° 0 mm 2 mps 757 mmHg 69%
    14:00 +16°C° 0 mm 2 mps 757 mmHg 65%
    15:00 +17°C° 0 mm 3 mps 756 mmHg 60%
    16:00 +17°C° 0 mm 2 mps 756 mmHg 61%
    17:00 +17°C° 0 mm 2 mps 756 mmHg 62%
    18:00 +16°C° 0 mm 2 mps 756 mmHg 64%
    19:00 +16°C° 0 mm 2 mps 756 mmHg 65%
    20:00 +15°C° 0 mm 2 mps 757 mmHg 66%
    21:00 +14°C° 0 mm 2 mps 757 mmHg 67%
    22:00 +14°C° 0 mm 2 mps 757 mmHg 66%
    23:00 +13°C° 0 mm 3 mps 757 mmHg 65%

    23 April, Monday

    Time Temperature Precipitation Wind Pressure Humidity
    00:00 +13°C° 0 mm 3 mps 757 mmHg 63%
    01:00 +12°C° 0 mm 4 mps 757 mmHg 60%
    02:00 +12°C° 0 mm 5 mps 757 mmHg 57%
    03:00 +11°C° 0 mm 6 mps 757 mmHg 54%
    04:00 +11°C° 0 mm 6 mps 757 mmHg 55%
    05:00 +11°C° 0 mm 6 mps 757 mmHg 56%
    06:00 +11°C° 0 mm 6 mps 757 mmHg 56%
    07:00 +14°C° 0 mm 6 mps 757 mmHg 52%
    08:00 +16°C° 0 mm 6 mps 757 mmHg 48%
    09:00 +17°C° 0 mm 6 mps 757 mmHg 44%
    10:00 +19°C° 0 mm 5 mps 757 mmHg 42%
    11:00 +20°C° 0 mm 3 mps 758 mmHg 39%
    12:00 +21°C° 0 mm 2 mps 758 mmHg 37%
    13:00 +21°C° 0 mm 2 mps 758 mmHg 37%
    14:00 +21°C° 0 mm 2 mps 757 mmHg 38%
    15:00 +21°C° 0 mm 2 mps 757 mmHg 38%
    16:00 +21°C° 0 mm 3 mps 758 mmHg 42%
    17:00 +20°C° 0 mm 3 mps 758 mmHg 47%
    18:00 +19°C° 0 mm 3 mps 758 mmHg 52%
    19:00 +18°C° 0 mm 3 mps 759 mmHg 56%
    20:00 +16°C° 0 mm 3 mps 760 mmHg 61%
    21:00 +14°C° 0 mm 3 mps 761 mmHg 65%
    22:00 +14°C° 0 mm 3 mps 761 mmHg 68%
    23:00 +14°C° 0 mm 2 mps 761 mmHg 71%

    24 April, Tuesday

    Time Temperature Precipitation Wind Pressure Humidity
    00:00 +13°C° 0 mm 2 mps 761 mmHg 74%
    01:00 +13°C° 0 mm 2 mps 761 mmHg 76%
    02:00 +12°C° 0 mm 1 mps 761 mmHg 78%
    03:00 +12°C° 0 mm 1 mps 761 mmHg 80%
    04:00 +12°C° 0 mm 1 mps 762 mmHg 78%
    05:00 +12°C° 0 mm 2 mps 762 mmHg 76%
    06:00 +13°C° 0 mm 2 mps 762 mmHg 74%
    07:00 +14°C° 0 mm 2 mps 762 mmHg 64%
    08:00 +16°C° 0 mm 3 mps 762 mmHg 54%
    09:00 +18°C° 0 mm 4 mps 762 mmHg 44%
    10:00 +19°C° 0 mm 4 mps 762 mmHg 41%
    11:00 +20°C° 0 mm 3 mps 762 mmHg 38%
    12:00 +21°C° 0 mm 3 mps 761 mmHg 34%
    13:00 +22°C° 0 mm 3 mps 761 mmHg 33%
    14:00 +22°C° 0 mm 3 mps 761 mmHg 33%
    15:00 +24°C° 0 mm 3 mps 761 mmHg 32%
    16:00 +23°C° 0 mm 2 mps 761 mmHg 35%
    17:00 +21°C° 0 mm 2 mps 761 mmHg 38%
    18:00 +22°C° 0 mm 1 mps 761 mmHg 41%
    19:00 +20°C° 0 mm 1 mps 762 mmHg 43%
    20:00 +19°C° 0 mm 1 mps 762 mmHg 44%
    21:00 +18°C° 0 mm 1 mps 763 mmHg 46%
    22:00 +16°C° 0 mm 2 mps 763 mmHg 47%
    23:00 +16°C° 0 mm 2 mps 763 mmHg 49%

    25 April, Wednesday

    Time Temperature Precipitation Wind Pressure Humidity
    00:00 +15°C° 0 mm 2 mps 762 mmHg 50%
    01:00 +15°C° 0 mm 2 mps 762 mmHg 52%
    02:00 +14°C° 0 mm 1 mps 762 mmHg 54%
    03:00 +14°C° 0 mm 1 mps 762 mmHg 57%
    04:00 +14°C° 0 mm 1 mps 762 mmHg 56%
    05:00 +14°C° 0 mm 1 mps 762 mmHg 56%
    06:00 +15°C° 0 mm 2 mps 762 mmHg 56%
    07:00 +16°C° 0 mm 2 mps 761 mmHg 50%
    08:00 +18°C° 0 mm 2 mps 760 mmHg 44%
    09:00 +20°C° 0 mm 2 mps 760 mmHg 38%
    10:00 +23°C° 0 mm 2 mps 759 mmHg 36%
    11:00 +24°C° 0 mm 2 mps 759 mmHg 33%
    12:00 +25°C° 0 mm 2 mps 758 mmHg 30%
    13:00 +26°C° 0 mm 2 mps 757 mmHg 30%
    14:00 +26°C° 0 mm 2 mps 757 mmHg 29%
    15:00 +27°C° 0 mm 2 mps 756 mmHg 29%
    16:00 +26°C° 0 mm 1 mps 756 mmHg 33%
    17:00 +25°C° 0 mm 1 mps 756 mmHg 37%
    18:00 +24°C° 0 mm 1 mps 756 mmHg 41%
    19:00 +23°C° 0 mm 2 mps 756 mmHg 41%
    20:00 +21°C° 0 mm 2 mps 757 mmHg 40%
    21:00 +20°C° 0 mm 3 mps 757 mmHg 40%
    22:00 +20°C° 0 mm 3 mps 757 mmHg 40%
    23:00 +20°C° 0 mm 3 mps 757 mmHg 40%
    Show more